M I D A S
Marine Information and Data Acquisition System
Tripno 1397 of the Zeeleeuw from 2007-08-06 07:02:02 to 2007-08-06 13:38:20
Back to CruiseResearch ActivitiesStationsMapUnderway DataData graphs

EquipmentUnitsComment
TimeDGPSUTC
LatitudeDGPSDM.mWGS84
LongitudeDGPSDM.mWGS84
TemperatureSBE03/SBE38deg celciusITS90
ConductivitySBE21S/mITS90
SalinitySBE21 Practical Salinity Units
ChlorophylAChelsea fluorimeterg/lCalibrated in Aceton
Missing or incorrect values are displayed as -999
Sea surface data collected by the RV Zeeleeuw from 2007-08-06 06:42:22 to 2007-08-06 13:51:07
                                                                                    Next 1000 lines
Time Latitude Longitude Temperature Conductivity Salinity ChlorophylA
2007-08-06 06:42:31 51°13.597 2°56.093 -999 -999 -999 -999
2007-08-06 06:42:37 51°13.598 2°56.09 -999 -999 -999 -999
2007-08-06 06:42:42 51°13.598 2°56.086 -999 -999 -999 -999
2007-08-06 06:42:47 51°13.599 2°56.082 -999 -999 -999 -999
2007-08-06 06:42:52 51°13.6 2°56.078 -999 -999 -999 -999
2007-08-06 06:42:57 51°13.602 2°56.072 -999 -999 -999 -999
2007-08-06 06:43:02 51°13.604 2°56.066 -999 -999 -999 -999
2007-08-06 06:43:07 51°13.605 2°56.06 -999 -999 -999 -999
2007-08-06 06:43:12 51°13.608 2°56.053 -999 -999 -999 -999
2007-08-06 06:43:17 51°13.61 2°56.046 -999 -999 -999 -999
2007-08-06 06:43:22 51°13.612 2°56.038 -999 -999 -999 -999
2007-08-06 06:43:27 51°13.615 2°56.03 -999 -999 -999 -999
2007-08-06 06:43:32 51°13.617 2°56.022 -999 -999 -999 -999
2007-08-06 06:43:37 51°13.62 2°56.013 -999 -999 -999 -999
2007-08-06 06:43:42 51°13.623 2°56.004 -999 -999 -999 -999
2007-08-06 06:43:47 51°13.627 2°55.995 -999 -999 -999 -999
2007-08-06 06:43:52 51°13.631 2°55.985 -999 -999 -999 -999
2007-08-06 06:43:57 51°13.635 2°55.976 -999 -999 -999 -999
2007-08-06 06:44:02 51°13.638 2°55.966 -999 -999 -999 -999
2007-08-06 06:44:07 51°13.643 2°55.957 -999 -999 -999 -999
2007-08-06 06:44:12 51°13.647 2°55.947 -999 -999 -999 -999
2007-08-06 06:44:17 51°13.651 2°55.937 -999 -999 -999 -999
2007-08-06 06:44:22 51°13.655 2°55.927 -999 -999 -999 -999
2007-08-06 06:44:27 51°13.659 2°55.917 -999 -999 -999 -999
2007-08-06 06:44:32 51°13.664 2°55.907 -999 -999 -999 -999
2007-08-06 06:44:37 51°13.668 2°55.897 -999 -999 -999 -999
2007-08-06 06:44:42 51°13.671 2°55.888 -999 -999 -999 -999
2007-08-06 06:44:47 51°13.674 2°55.879 -999 -999 -999 -999
2007-08-06 06:44:52 51°13.677 2°55.87 -999 -999 -999 -999
2007-08-06 06:44:57 51°13.68 2°55.862 -999 -999 -999 -999
2007-08-06 06:45:02 51°13.683 2°55.854 -999 -999 -999 -999
2007-08-06 06:45:07 51°13.685 2°55.846 -999 -999 -999 -999
2007-08-06 06:45:12 51°13.687 2°55.838 -999 -999 -999 -999
2007-08-06 06:45:17 51°13.689 2°55.83 -999 -999 -999 -999
2007-08-06 06:45:22 51°13.691 2°55.822 -999 -999 -999 -999
2007-08-06 06:45:27 51°13.693 2°55.814 -999 -999 -999 -999
2007-08-06 06:45:32 51°13.694 2°55.806 -999 -999 -999 -999
2007-08-06 06:45:37 51°13.695 2°55.798 -999 -999 -999 -999
2007-08-06 06:45:42 51°13.696 2°55.791 -999 -999 -999 -999
2007-08-06 06:45:47 51°13.697 2°55.784 -999 -999 -999 -999
2007-08-06 06:45:52 51°13.697 2°55.777 -999 -999 -999 -999
2007-08-06 06:45:57 51°13.698 2°55.77 -999 -999 -999 -999
2007-08-06 06:46:02 51°13.698 2°55.764 -999 -999 -999 -999
2007-08-06 06:46:07 51°13.698 2°55.758 -999 -999 -999 -999
2007-08-06 06:46:12 51°13.697 2°55.752 -999 -999 -999 -999
2007-08-06 06:46:17 51°13.697 2°55.747 -999 -999 -999 -999
2007-08-06 06:46:22 51°13.697 2°55.743 -999 -999 -999 -999
2007-08-06 06:46:27 51°13.697 2°55.739 -999 -999 -999 -999
2007-08-06 06:46:32 51°13.696 2°55.735 -999 -999 -999 -999
2007-08-06 06:46:37 51°13.696 2°55.733 -999 -999 -999 -999
2007-08-06 06:46:42 51°13.696 2°55.731 -999 -999 -999 -999
2007-08-06 06:46:47 51°13.696 2°55.731 -999 -999 -999 -999
2007-08-06 06:46:51 51°13.697 2°55.731 -999 -999 -999 -999
2007-08-06 06:46:57 51°13.699 2°55.735 -999 -999 -999 -999
2007-08-06 06:47:02 51°13.702 2°55.738 -999 -999 -999 -999
2007-08-06 06:47:07 51°13.705 2°55.741 -999 -999 -999 -999
2007-08-06 06:47:12 51°13.708 2°55.744 -999 -999 -999 -999
2007-08-06 06:47:16 51°13.711 2°55.746 -999 -999 -999 -999
2007-08-06 06:47:22 51°13.716 2°55.748 -999 -999 -999 -999
2007-08-06 06:47:27 51°13.719 2°55.749 -999 -999 -999 -999
2007-08-06 06:47:31 51°13.723 2°55.749 -999 -999 -999 -999
2007-08-06 06:47:37 51°13.728 2°55.749 -999 -999 -999 -999
2007-08-06 06:47:42 51°13.731 2°55.749 -999 -999 -999 -999
2007-08-06 06:47:47 51°13.734 2°55.749 -999 -999 -999 -999
2007-08-06 06:47:52 51°13.735 2°55.749 -999 -999 -999 -999
2007-08-06 06:47:56 51°13.735 2°55.749 -999 -999 -999 -999
2007-08-06 06:48:02 51°13.735 2°55.75 -999 -999 -999 -999
2007-08-06 06:48:07 51°13.735 2°55.751 -999 -999 -999 -999
2007-08-06 06:48:12 51°13.736 2°55.751 -999 -999 -999 -999
2007-08-06 06:48:17 51°13.738 2°55.751 -999 -999 -999 -999
2007-08-06 06:48:22 51°13.741 2°55.749 -999 -999 -999 -999
2007-08-06 06:48:27 51°13.744 2°55.747 -999 -999 -999 -999
2007-08-06 06:48:32 51°13.748 2°55.743 -999 -999 -999 -999
2007-08-06 06:48:37 51°13.752 2°55.739 -999 -999 -999 -999
2007-08-06 06:48:42 51°13.755 2°55.734 -999 -999 -999 -999
2007-08-06 06:48:47 51°13.759 2°55.729 -999 -999 -999 -999
2007-08-06 06:48:52 51°13.763 2°55.724 -999 -999 -999 -999
2007-08-06 06:48:57 51°13.767 2°55.717 -999 -999 -999 -999
2007-08-06 06:49:02 51°13.772 2°55.71 -999 -999 -999 -999
2007-08-06 06:49:07 51°13.777 2°55.702 -999 -999 -999 -999
2007-08-06 06:49:11 51°13.782 2°55.695 -999 -999 -999 -999
2007-08-06 06:49:17 51°13.789 2°55.686 -999 -999 -999 -999
2007-08-06 06:49:22 51°13.795 2°55.677 -999 -999 -999 -999
2007-08-06 06:49:27 51°13.802 2°55.668 -999 -999 -999 -999
2007-08-06 06:49:32 51°13.809 2°55.66 -999 -999 -999 -999
2007-08-06 06:49:36 51°13.815 2°55.654 -999 -999 -999 -999
2007-08-06 06:49:42 51°13.825 2°55.645 -999 -999 -999 -999
2007-08-06 06:49:47 51°13.834 2°55.638 -999 -999 -999 -999
2007-08-06 06:49:51 51°13.842 2°55.633 -999 -999 -999 -999
2007-08-06 06:49:57 51°13.852 2°55.624 -999 -999 -999 -999
2007-08-06 06:50:02 51°13.862 2°55.617 -999 -999 -999 -999
2007-08-06 06:50:07 51°13.871 2°55.61 -999 -999 -999 -999
2007-08-06 06:50:12 51°13.881 2°55.603 -999 -999 -999 -999
2007-08-06 06:50:16 51°13.888 2°55.597 -999 -999 -999 -999
2007-08-06 06:50:22 51°13.9 2°55.589 -999 -999 -999 -999
2007-08-06 06:50:27 51°13.911 2°55.583 -999 -999 -999 -999
2007-08-06 06:50:32 51°13.92 2°55.576 -999 -999 -999 -999
2007-08-06 06:50:37 51°13.93 2°55.569 -999 -999 -999 -999
2007-08-06 06:50:42 51°13.94 2°55.561 -999 -999 -999 -999
2007-08-06 06:50:47 51°13.95 2°55.554 -999 -999 -999 -999
2007-08-06 06:50:52 51°13.959 2°55.547 -999 -999 -999 -999
2007-08-06 06:50:57 51°13.969 2°55.54 -999 -999 -999 -999
2007-08-06 06:51:02 51°13.979 2°55.533 -999 -999 -999 -999
2007-08-06 06:51:07 51°13.989 2°55.526 -999 -999 -999 -999
2007-08-06 06:51:12 51°13.999 2°55.519 -999 -999 -999 -999
2007-08-06 06:51:17 51°14.009 2°55.512 -999 -999 -999 -999
2007-08-06 06:51:22 51°14.019 2°55.504 -999 -999 -999 -999
2007-08-06 06:51:27 51°14.029 2°55.497 -999 -999 -999 -999
2007-08-06 06:51:31 51°14.037 2°55.491 -999 -999 -999 -999
2007-08-06 06:51:37 51°14.049 2°55.482 -999 -999 -999 -999
2007-08-06 06:51:42 51°14.058 2°55.475 -999 -999 -999 -999
2007-08-06 06:51:47 51°14.069 2°55.467 -999 -999 -999 -999
2007-08-06 06:51:52 51°14.079 2°55.46 -999 -999 -999 -999
2007-08-06 06:51:57 51°14.088 2°55.452 -999 -999 -999 -999
2007-08-06 06:52:02 51°14.098 2°55.445 -999 -999 -999 -999
2007-08-06 06:52:07 51°14.108 2°55.437 -999 -999 -999 -999
2007-08-06 06:52:12 51°14.118 2°55.43 -999 -999 -999 -999
2007-08-06 06:52:17 51°14.128 2°55.421 -999 -999 -999 -999
2007-08-06 06:52:22 51°14.137 2°55.413 -999 -999 -999 -999
2007-08-06 06:52:27 51°14.147 2°55.405 -999 -999 -999 -999
2007-08-06 06:52:32 51°14.157 2°55.396 -999 -999 -999 -999
2007-08-06 06:52:37 51°14.166 2°55.388 -999 -999 -999 -999
2007-08-06 06:52:42 51°14.175 2°55.378 -999 -999 -999 -999
2007-08-06 06:52:47 51°14.184 2°55.368 -999 -999 -999 -999
2007-08-06 06:52:52 51°14.192 2°55.358 -999 -999 -999 -999
2007-08-06 06:52:57 51°14.201 2°55.347 -999 -999 -999 -999
2007-08-06 06:53:02 51°14.209 2°55.336 -999 -999 -999 -999
2007-08-06 06:53:07 51°14.217 2°55.325 -999 -999 -999 -999
2007-08-06 06:53:12 51°14.225 2°55.314 -999 -999 -999 -999
2007-08-06 06:53:17 51°14.234 2°55.301 -999 -999 -999 -999
2007-08-06 06:53:22 51°14.242 2°55.288 -999 -999 -999 -999
2007-08-06 06:53:27 51°14.25 2°55.275 -999 -999 -999 -999
2007-08-06 06:53:32 51°14.259 2°55.26 -999 -999 -999 -999
2007-08-06 06:53:37 51°14.268 2°55.246 -999 -999 -999 -999
2007-08-06 06:53:42 51°14.277 2°55.23 -999 -999 -999 -999
2007-08-06 06:53:47 51°14.285 2°55.214 -999 -999 -999 -999
2007-08-06 06:53:52 51°14.294 2°55.197 -999 -999 -999 -999
2007-08-06 06:53:56 51°14.301 2°55.184 -999 -999 -999 -999
2007-08-06 06:54:02 51°14.311 2°55.163 -999 -999 -999 -999
2007-08-06 06:54:07 51°14.32 2°55.145 -999 -999 -999 -999
2007-08-06 06:54:11 51°14.327 2°55.131 -999 -999 -999 -999
2007-08-06 06:54:17 51°14.338 2°55.11 -999 -999 -999 -999
2007-08-06 06:54:22 51°14.348 2°55.091 -999 -999 -999 -999
2007-08-06 06:54:27 51°14.357 2°55.073 -999 -999 -999 -999
2007-08-06 06:54:32 51°14.366 2°55.054 -999 -999 -999 -999
2007-08-06 06:54:36 51°14.374 2°55.039 -999 -999 -999 -999
2007-08-06 06:54:42 51°14.384 2°55.016 -999 -999 -999 -999
2007-08-06 06:54:47 51°14.392 2°54.996 -999 -999 -999 -999
2007-08-06 06:54:52 51°14.4 2°54.975 -999 -999 -999 -999
2007-08-06 06:54:57 51°14.406 2°54.954 -999 -999 -999 -999
2007-08-06 06:55:02 51°14.411 2°54.932 -999 -999 -999 -999
2007-08-06 06:55:07 51°14.416 2°54.911 -999 -999 -999 -999
2007-08-06 06:55:12 51°14.421 2°54.889 -999 -999 -999 -999
2007-08-06 06:55:17 51°14.426 2°54.866 -999 -999 -999 -999
2007-08-06 06:55:22 51°14.43 2°54.844 -999 -999 -999 -999
2007-08-06 06:55:27 51°14.433 2°54.821 -999 -999 -999 -999
2007-08-06 06:55:32 51°14.437 2°54.797 -999 -999 -999 -999
2007-08-06 06:55:37 51°14.441 2°54.774 -999 -999 -999 -999
2007-08-06 06:55:42 51°14.445 2°54.751 -999 -999 -999 -999
2007-08-06 06:55:47 51°14.447 2°54.727 -999 -999 -999 -999
2007-08-06 06:55:52 51°14.45 2°54.703 -999 -999 -999 -999
2007-08-06 06:55:57 51°14.452 2°54.679 -999 -999 -999 -999
2007-08-06 06:56:02 51°14.454 2°54.655 -999 -999 -999 -999
2007-08-06 06:56:07 51°14.455 2°54.63 -999 -999 -999 -999
2007-08-06 06:56:12 51°14.456 2°54.606 -999 -999 -999 -999
2007-08-06 06:56:16 51°14.457 2°54.586 -999 -999 -999 -999
2007-08-06 06:56:22 51°14.457 2°54.557 -999 -999 -999 -999
2007-08-06 06:56:27 51°14.456 2°54.533 -999 -999 -999 -999
2007-08-06 06:56:31 51°14.455 2°54.513 -999 -999 -999 -999
2007-08-06 06:56:37 51°14.453 2°54.484 -999 -999 -999 -999
2007-08-06 06:56:42 51°14.45 2°54.459 -999 -999 -999 -999
2007-08-06 06:56:47 51°14.448 2°54.435 -999 -999 -999 -999
2007-08-06 06:56:52 51°14.445 2°54.41 -999 -999 -999 -999
2007-08-06 06:56:56 51°14.443 2°54.39 -999 -999 -999 -999
2007-08-06 06:57:02 51°14.439 2°54.36 -999 -999 -999 -999
2007-08-06 06:57:07 51°14.436 2°54.336 -999 -999 -999 -999
2007-08-06 06:57:12 51°14.432 2°54.311 -999 -999 -999 -999
2007-08-06 06:57:17 51°14.427 2°54.287 -999 -999 -999 -999
2007-08-06 06:57:22 51°14.422 2°54.264 -999 -999 -999 -999
2007-08-06 06:57:27 51°14.415 2°54.241 -999 -999 -999 -999
2007-08-06 06:57:32 51°14.408 2°54.219 -999 -999 -999 -999
2007-08-06 06:57:37 51°14.399 2°54.197 -999 -999 -999 -999
2007-08-06 06:57:42 51°14.391 2°54.176 -999 -999 -999 -999
2007-08-06 06:57:47 51°14.382 2°54.155 -999 -999 -999 -999
2007-08-06 06:57:52 51°14.372 2°54.135 -999 -999 -999 -999
2007-08-06 06:57:57 51°14.363 2°54.114 -999 -999 -999 -999
2007-08-06 06:58:02 51°14.353 2°54.093 -999 -999 -999 -999
2007-08-06 06:58:07 51°14.343 2°54.073 -999 -999 -999 -999
2007-08-06 06:58:12 51°14.334 2°54.053 -999 -999 -999 -999
2007-08-06 06:58:17 51°14.324 2°54.032 -999 -999 -999 -999
2007-08-06 06:58:22 51°14.315 2°54.011 -999 -999 -999 -999
2007-08-06 06:58:27 51°14.306 2°53.99 -999 -999 -999 -999
2007-08-06 06:58:32 51°14.297 2°53.969 -999 -999 -999 -999
2007-08-06 06:58:36 51°14.289 2°53.952 -999 -999 -999 -999
2007-08-06 06:58:42 51°14.279 2°53.927 -999 -999 -999 -999
2007-08-06 06:58:47 51°14.27 2°53.906 -999 -999 -999 -999
2007-08-06 06:58:52 51°14.261 2°53.885 -999 -999 -999 -999
2007-08-06 06:58:57 51°14.251 2°53.864 -999 -999 -999 -999
2007-08-06 06:59:02 51°14.242 2°53.843 -999 -999 -999 -999
2007-08-06 06:59:07 51°14.232 2°53.822 -999 -999 -999 -999
2007-08-06 06:59:12 51°14.223 2°53.801 -999 -999 -999 -999
2007-08-06 06:59:16 51°14.216 2°53.785 -999 -999 -999 -999
2007-08-06 06:59:22 51°14.204 2°53.76 -999 -999 -999 -999
2007-08-06 06:59:27 51°14.195 2°53.739 -999 -999 -999 -999
2007-08-06 06:59:32 51°14.186 2°53.718 -999 -999 -999 -999
2007-08-06 06:59:37 51°14.177 2°53.697 -999 -999 -999 -999
2007-08-06 06:59:42 51°14.168 2°53.676 -999 -999 -999 -999
2007-08-06 06:59:47 51°14.16 2°53.654 -999 -999 -999 -999
2007-08-06 06:59:52 51°14.151 2°53.633 -999 -999 -999 -999
2007-08-06 06:59:57 51°14.142 2°53.611 -999 -999 -999 -999
2007-08-06 07:00:02 51°14.134 2°53.589 -999 -999 -999 -999
2007-08-06 07:00:07 51°14.126 2°53.568 -999 -999 -999 -999
2007-08-06 07:00:12 51°14.117 2°53.546 -999 -999 -999 -999
2007-08-06 07:00:17 51°14.109 2°53.524 -999 -999 -999 -999
2007-08-06 07:00:22 51°14.101 2°53.502 -999 -999 -999 -999
2007-08-06 07:00:27 51°14.093 2°53.48 -999 -999 -999 -999
2007-08-06 07:00:31 51°14.086 2°53.462 -999 -999 -999 -999
2007-08-06 07:00:37 51°14.076 2°53.436 -999 -999 -999 -999
2007-08-06 07:00:42 51°14.068 2°53.414 -999 -999 -999 -999
2007-08-06 07:00:47 51°14.06 2°53.392 -999 -999 -999 -999
2007-08-06 07:00:52 51°14.052 2°53.37 -999 -999 -999 -999
2007-08-06 07:00:56 51°14.045 2°53.353 -999 -999 -999 -999
2007-08-06 07:01:02 51°14.034 2°53.328 -999 -999 -999 -999
2007-08-06 07:01:07 51°14.026 2°53.307 -999 -999 -999 -999
2007-08-06 07:01:12 51°14.017 2°53.285 -999 -999 -999 -999
2007-08-06 07:01:17 51°14.009 2°53.264 -999 -999 -999 -999
2007-08-06 07:01:22 51°14.001 2°53.242 -999 -999 -999 -999
2007-08-06 07:01:27 51°13.993 2°53.221 -999 -999 -999 -999
2007-08-06 07:01:32 51°13.984 2°53.199 -999 -999 -999 -999
2007-08-06 07:01:36 51°13.978 2°53.181 -999 -999 -999 -999
2007-08-06 07:01:42 51°13.968 2°53.156 -999 -999 -999 -999
2007-08-06 07:01:47 51°13.96 2°53.134 -999 -999 -999 -999
2007-08-06 07:01:52 51°13.952 2°53.112 -999 -999 -999 -999
2007-08-06 07:01:57 51°13.944 2°53.09 -999 -999 -999 -999
2007-08-06 07:02:02 51°13.936 2°53.068 -999 -999 -999 -999
2007-08-06 07:02:07 51°13.928 2°53.046 -999 -999 -999 -999
2007-08-06 07:02:12 51°13.92 2°53.024 -999 -999 -999 -999
2007-08-06 07:02:17 51°13.911 2°53.002 -999 -999 -999 -999
2007-08-06 07:02:22 51°13.903 2°52.98 -999 -999 -999 -999
2007-08-06 07:02:27 51°13.895 2°52.958 -999 -999 -999 -999
2007-08-06 07:02:32 51°13.887 2°52.936 -999 -999 -999 -999
2007-08-06 07:02:37 51°13.878 2°52.914 -999 -999 -999 -999
2007-08-06 07:02:42 51°13.87 2°52.892 -999 -999 -999 -999
2007-08-06 07:02:47 51°13.862 2°52.87 -999 -999 -999 -999
2007-08-06 07:02:52 51°13.854 2°52.848 -999 -999 -999 -999
2007-08-06 07:02:57 51°13.845 2°52.825 -999 -999 -999 -999
2007-08-06 07:03:02 51°13.837 2°52.803 -999 -999 -999 -999
2007-08-06 07:03:07 51°13.829 2°52.781 -999 -999 -999 -999
2007-08-06 07:03:12 51°13.821 2°52.759 -999 -999 -999 -999
2007-08-06 07:03:16 51°13.814 2°52.741 -999 -999 -999 -999
2007-08-06 07:03:22 51°13.804 2°52.715 -999 -999 -999 -999
2007-08-06 07:03:27 51°13.796 2°52.693 -999 -999 -999 -999
2007-08-06 07:03:32 51°13.788 2°52.671 -999 -999 -999 -999
2007-08-06 07:03:37 51°13.779 2°52.649 -999 -999 -999 -999
2007-08-06 07:03:42 51°13.771 2°52.627 -999 -999 -999 -999
2007-08-06 07:03:47 51°13.763 2°52.605 -999 -999 -999 -999
2007-08-06 07:03:52 51°13.754 2°52.584 -999 -999 -999 -999
2007-08-06 07:03:57 51°13.746 2°52.562 -999 -999 -999 -999
2007-08-06 07:04:02 51°13.738 2°52.54 -999 -999 -999 -999
2007-08-06 07:04:07 51°13.73 2°52.518 -999 -999 -999 -999
2007-08-06 07:04:12 51°13.722 2°52.497 -999 -999 -999 -999
2007-08-06 07:04:17 51°13.714 2°52.475 -999 -999 -999 -999
2007-08-06 07:04:22 51°13.706 2°52.453 -999 -999 -999 -999
2007-08-06 07:04:27 51°13.698 2°52.432 -999 -999 -999 -999
2007-08-06 07:04:32 51°13.69 2°52.41 -999 -999 -999 -999
2007-08-06 07:04:37 51°13.682 2°52.388 -999 -999 -999 -999
2007-08-06 07:04:42 51°13.674 2°52.367 -999 -999 -999 -999
2007-08-06 07:04:47 51°13.666 2°52.345 -999 -999 -999 -999
2007-08-06 07:04:52 51°13.657 2°52.324 -999 -999 -999 -999
2007-08-06 07:04:57 51°13.649 2°52.302 -999 -999 -999 -999
2007-08-06 07:05:02 51°13.641 2°52.28 -999 -999 -999 -999
2007-08-06 07:05:07 51°13.633 2°52.259 -999 -999 -999 -999
2007-08-06 07:05:12 51°13.625 2°52.237 -999 -999 -999 -999
2007-08-06 07:05:17 51°13.617 2°52.215 -999 -999 -999 -999
2007-08-06 07:05:22 51°13.609 2°52.194 -999 -999 -999 -999
2007-08-06 07:05:27 51°13.601 2°52.172 -999 -999 -999 -999
2007-08-06 07:05:32 51°13.593 2°52.15 -999 -999 -999 -999
2007-08-06 07:05:36 51°13.586 2°52.133 -999 -999 -999 -999
2007-08-06 07:05:42 51°13.577 2°52.107 -999 -999 -999 -999
2007-08-06 07:05:47 51°13.569 2°52.085 -999 -999 -999 -999
2007-08-06 07:05:52 51°13.561 2°52.063 -999 -999 -999 -999
2007-08-06 07:05:57 51°13.553 2°52.041 -999 -999 -999 -999
2007-08-06 07:06:02 51°13.545 2°52.02 -999 -999 -999 -999
2007-08-06 07:06:07 51°13.536 2°51.998 -999 -999 -999 -999
2007-08-06 07:06:12 51°13.528 2°51.976 -999 -999 -999 -999
2007-08-06 07:06:17 51°13.52 2°51.954 -999 -999 -999 -999
2007-08-06 07:06:22 51°13.512 2°51.932 -999 -999 -999 -999
2007-08-06 07:06:27 51°13.504 2°51.91 -999 -999 -999 -999
2007-08-06 07:06:32 51°13.495 2°51.888 -999 -999 -999 -999
2007-08-06 07:06:37 51°13.487 2°51.866 -999 -999 -999 -999
2007-08-06 07:06:42 51°13.479 2°51.844 -999 -999 -999 -999
2007-08-06 07:06:47 51°13.471 2°51.822 -999 -999 -999 -999
2007-08-06 07:06:52 51°13.463 2°51.8 -999 -999 -999 -999
2007-08-06 07:06:57 51°13.454 2°51.778 -999 -999 -999 -999
2007-08-06 07:07:02 51°13.446 2°51.756 -999 -999 -999 -999
2007-08-06 07:07:07 51°13.438 2°51.735 -999 -999 -999 -999
2007-08-06 07:07:11 51°13.431 2°51.717 -999 -999 -999 -999
2007-08-06 07:07:17 51°13.422 2°51.691 -999 -999 -999 -999
2007-08-06 07:07:22 51°13.413 2°51.67 -999 -999 -999 -999
2007-08-06 07:07:27 51°13.404 2°51.649 -999 -999 -999 -999
2007-08-06 07:07:32 51°13.395 2°51.629 -999 -999 -999 -999
2007-08-06 07:07:36 51°13.387 2°51.612 -999 -999 -999 -999
2007-08-06 07:07:42 51°13.375 2°51.589 -999 -999 -999 -999
2007-08-06 07:07:47 51°13.365 2°51.569 -999 -999 -999 -999
2007-08-06 07:07:52 51°13.355 2°51.55 -999 -999 -999 -999
2007-08-06 07:07:57 51°13.345 2°51.53 -999 -999 -999 -999
2007-08-06 07:08:02 51°13.335 2°51.511 -999 -999 -999 -999
2007-08-06 07:08:07 51°13.325 2°51.492 -999 -999 -999 -999
2007-08-06 07:08:12 51°13.315 2°51.472 -999 -999 -999 -999
2007-08-06 07:08:17 51°13.305 2°51.452 -999 -999 -999 -999
2007-08-06 07:08:22 51°13.295 2°51.433 -999 -999 -999 -999
2007-08-06 07:08:27 51°13.285 2°51.413 -999 -999 -999 -999
2007-08-06 07:08:32 51°13.275 2°51.393 -999 -999 -999 -999
2007-08-06 07:08:37 51°13.266 2°51.373 -999 -999 -999 -999
2007-08-06 07:08:42 51°13.256 2°51.353 -999 -999 -999 -999
2007-08-06 07:08:47 51°13.246 2°51.333 -999 -999 -999 -999
2007-08-06 07:08:52 51°13.237 2°51.313 -999 -999 -999 -999
2007-08-06 07:08:57 51°13.228 2°51.293 -999 -999 -999 -999
2007-08-06 07:09:02 51°13.219 2°51.272 -999 -999 -999 -999
2007-08-06 07:09:07 51°13.21 2°51.252 -999 -999 -999 -999
2007-08-06 07:09:12 51°13.201 2°51.231 -999 -999 -999 -999
2007-08-06 07:09:17 51°13.192 2°51.211 -999 -999 -999 -999
2007-08-06 07:09:22 51°13.183 2°51.19 -999 -999 -999 -999
2007-08-06 07:09:27 51°13.174 2°51.17 -999 -999 -999 -999
2007-08-06 07:09:31 51°13.167 2°51.153 -999 -999 -999 -999
2007-08-06 07:09:37 51°13.156 2°51.129 -999 -999 -999 -999
2007-08-06 07:09:42 51°13.147 2°51.108 -999 -999 -999 -999
2007-08-06 07:09:47 51°13.138 2°51.088 -999 -999 -999 -999
2007-08-06 07:09:52 51°13.129 2°51.067 -999 -999 -999 -999
2007-08-06 07:09:57 51°13.12 2°51.047 -999 -999 -999 -999
2007-08-06 07:10:02 51°13.111 2°51.026 -999 -999 -999 -999
2007-08-06 07:10:07 51°13.102 2°51.006 -999 -999 -999 -999
2007-08-06 07:10:12 51°13.093 2°50.985 -999 -999 -999 -999
2007-08-06 07:10:17 51°13.084 2°50.965 -999 -999 -999 -999
2007-08-06 07:10:22 51°13.075 2°50.944 -999 -999 -999 -999
2007-08-06 07:10:27 51°13.066 2°50.924 -999 -999 -999 -999
2007-08-06 07:10:32 51°13.057 2°50.903 -999 -999 -999 -999
2007-08-06 07:10:37 51°13.048 2°50.883 -999 -999 -999 -999
2007-08-06 07:10:42 51°13.039 2°50.862 -999 -999 -999 -999
2007-08-06 07:10:47 51°13.03 2°50.841 -999 -999 -999 -999
2007-08-06 07:10:52 51°13.022 2°50.82 -999 -999 -999 -999
2007-08-06 07:10:57 51°13.013 2°50.8 -999 -999 -999 -999
2007-08-06 07:11:02 51°13.004 2°50.779 -999 -999 -999 -999
2007-08-06 07:11:07 51°12.995 2°50.759 -999 -999 -999 -999
2007-08-06 07:11:12 51°12.986 2°50.738 -999 -999 -999 -999
2007-08-06 07:11:17 51°12.977 2°50.717 -999 -999 -999 -999
2007-08-06 07:11:22 51°12.968 2°50.696 -999 -999 -999 -999
2007-08-06 07:11:27 51°12.96 2°50.675 -999 -999 -999 -999
2007-08-06 07:11:32 51°12.952 2°50.653 -999 -999 -999 -999
2007-08-06 07:11:37 51°12.943 2°50.632 -999 -999 -999 -999
2007-08-06 07:11:42 51°12.935 2°50.611 -999 -999 -999 -999
2007-08-06 07:11:47 51°12.927 2°50.589 -999 -999 -999 -999
2007-08-06 07:11:51 51°12.92 2°50.572 -999 -999 -999 -999
2007-08-06 07:11:57 51°12.91 2°50.547 -999 -999 -999 -999
2007-08-06 07:12:02 51°12.901 2°50.526 -999 -999 -999 -999
2007-08-06 07:12:07 51°12.893 2°50.505 -999 -999 -999 -999
2007-08-06 07:12:12 51°12.884 2°50.484 -999 -999 -999 -999
2007-08-06 07:12:16 51°12.877 2°50.466 -999 -999 -999 -999
2007-08-06 07:12:22 51°12.867 2°50.441 -999 -999 -999 -999
2007-08-06 07:12:27 51°12.858 2°50.42 -999 -999 -999 -999
2007-08-06 07:12:32 51°12.85 2°50.398 -999 -999 -999 -999
2007-08-06 07:12:37 51°12.841 2°50.377 -999 -999 -999 -999
2007-08-06 07:12:42 51°12.833 2°50.355 -999 -999 -999 -999
2007-08-06 07:12:47 51°12.824 2°50.334 -999 -999 -999 -999
2007-08-06 07:12:52 51°12.816 2°50.313 -999 -999 -999 -999
2007-08-06 07:12:57 51°12.808 2°50.291 -999 -999 -999 -999
2007-08-06 07:13:02 51°12.8 2°50.27 -999 -999 -999 -999
2007-08-06 07:13:07 51°12.791 2°50.248 -999 -999 -999 -999
2007-08-06 07:13:12 51°12.783 2°50.227 -999 -999 -999 -999
2007-08-06 07:13:17 51°12.774 2°50.205 -999 -999 -999 -999
2007-08-06 07:13:22 51°12.766 2°50.184 -999 -999 -999 -999
2007-08-06 07:13:27 51°12.758 2°50.162 -999 -999 -999 -999
2007-08-06 07:13:32 51°12.75 2°50.14 -999 -999 -999 -999
2007-08-06 07:13:37 51°12.741 2°50.119 -999 -999 -999 -999
2007-08-06 07:13:42 51°12.733 2°50.097 -999 -999 -999 -999
2007-08-06 07:13:47 51°12.724 2°50.075 -999 -999 -999 -999
2007-08-06 07:13:52 51°12.716 2°50.054 -999 -999 -999 -999
2007-08-06 07:13:57 51°12.708 2°50.032 -999 -999 -999 -999
2007-08-06 07:14:02 51°12.699 2°50.01 -999 -999 -999 -999
2007-08-06 07:14:07 51°12.69 2°49.989 -999 -999 -999 -999
2007-08-06 07:14:11 51°12.683 2°49.972 -999 -999 -999 -999
2007-08-06 07:14:16 51°12.675 2°49.95 -999 -999 -999 -999
2007-08-06 07:14:22 51°12.664 2°49.924 -999 -999 -999 -999
2007-08-06 07:14:27 51°12.656 2°49.902 -999 -999 -999 -999
2007-08-06 07:14:32 51°12.648 2°49.881 -999 -999 -999 -999
2007-08-06 07:14:36 51°12.641 2°49.863 -999 -999 -999 -999
2007-08-06 07:14:42 51°12.631 2°49.837 -999 -999 -999 -999
2007-08-06 07:14:47 51°12.623 2°49.815 -999 -999 -999 -999
2007-08-06 07:14:52 51°12.615 2°49.793 -999 -999 -999 -999
2007-08-06 07:14:57 51°12.607 2°49.771 -999 -999 -999 -999
2007-08-06 07:15:02 51°12.598 2°49.749 -999 -999 -999 -999
2007-08-06 07:15:07 51°12.59 2°49.728 -999 -999 -999 -999
2007-08-06 07:15:12 51°12.582 2°49.706 -999 -999 -999 -999
2007-08-06 07:15:17 51°12.573 2°49.684 -999 -999 -999 -999
2007-08-06 07:15:22 51°12.565 2°49.663 -999 -999 -999 -999
2007-08-06 07:15:27 51°12.557 2°49.641 -999 -999 -999 -999
2007-08-06 07:15:32 51°12.549 2°49.619 -999 -999 -999 -999
2007-08-06 07:15:37 51°12.541 2°49.597 -999 -999 -999 -999
2007-08-06 07:15:42 51°12.533 2°49.575 -999 -999 -999 -999
2007-08-06 07:15:47 51°12.525 2°49.553 -999 -999 -999 -999
2007-08-06 07:15:52 51°12.517 2°49.531 -999 -999 -999 -999
2007-08-06 07:15:57 51°12.508 2°49.509 -999 -999 -999 -999
2007-08-06 07:16:02 51°12.5 2°49.487 -999 -999 -999 -999
2007-08-06 07:16:07 51°12.492 2°49.466 -999 -999 -999 -999
2007-08-06 07:16:12 51°12.484 2°49.444 -999 -999 -999 -999
2007-08-06 07:16:17 51°12.476 2°49.422 -999 -999 -999 -999
2007-08-06 07:16:22 51°12.468 2°49.4 -999 -999 -999 -999
2007-08-06 07:16:27 51°12.459 2°49.378 -999 -999 -999 -999
2007-08-06 07:16:31 51°12.453 2°49.361 -999 -999 -999 -999
2007-08-06 07:16:37 51°12.443 2°49.334 -999 -999 -999 -999
2007-08-06 07:16:42 51°12.435 2°49.313 -999 -999 -999 -999
2007-08-06 07:16:47 51°12.427 2°49.29 -999 -999 -999 -999
2007-08-06 07:16:52 51°12.419 2°49.269 -999 -999 -999 -999
2007-08-06 07:16:57 51°12.411 2°49.246 -999 -999 -999 -999
2007-08-06 07:17:02 51°12.403 2°49.224 -999 -999 -999 -999
2007-08-06 07:17:07 51°12.395 2°49.202 -999 -999 -999 -999
2007-08-06 07:17:12 51°12.388 2°49.179 -999 -999 -999 -999
2007-08-06 07:17:17 51°12.38 2°49.157 -999 -999 -999 -999
2007-08-06 07:17:22 51°12.372 2°49.135 -999 -999 -999 -999
2007-08-06 07:17:27 51°12.364 2°49.113 -999 -999 -999 -999
2007-08-06 07:17:32 51°12.357 2°49.091 -999 -999 -999 -999
2007-08-06 07:17:37 51°12.349 2°49.069 -999 -999 -999 -999
2007-08-06 07:17:42 51°12.342 2°49.046 -999 -999 -999 -999
2007-08-06 07:17:47 51°12.334 2°49.024 -999 -999 -999 -999
2007-08-06 07:17:52 51°12.327 2°49.002 -999 -999 -999 -999
2007-08-06 07:17:57 51°12.319 2°48.979 -999 -999 -999 -999
2007-08-06 07:18:02 51°12.311 2°48.957 -999 -999 -999 -999
2007-08-06 07:18:07 51°12.304 2°48.935 -999 -999 -999 -999
2007-08-06 07:18:12 51°12.296 2°48.912 -999 -999 -999 -999
2007-08-06 07:18:17 51°12.288 2°48.89 -999 -999 -999 -999
2007-08-06 07:18:22 51°12.28 2°48.868 -999 -999 -999 -999
2007-08-06 07:18:27 51°12.273 2°48.845 -999 -999 -999 -999
2007-08-06 07:18:32 51°12.265 2°48.823 -999 -999 -999 -999
2007-08-06 07:18:37 51°12.257 2°48.8 -999 -999 -999 -999
2007-08-06 07:18:42 51°12.25 2°48.778 -999 -999 -999 -999
2007-08-06 07:18:47 51°12.242 2°48.755 -999 -999 -999 -999
2007-08-06 07:18:52 51°12.235 2°48.732 -999 -999 -999 -999
2007-08-06 07:18:57 51°12.227 2°48.71 -999 -999 -999 -999
2007-08-06 07:19:02 51°12.22 2°48.687 -999 -999 -999 -999
2007-08-06 07:19:07 51°12.212 2°48.665 -999 -999 -999 -999
2007-08-06 07:19:12 51°12.204 2°48.642 -999 -999 -999 -999
2007-08-06 07:19:16 51°12.197 2°48.624 -999 -999 -999 -999
2007-08-06 07:19:22 51°12.188 2°48.597 -999 -999 -999 -999
2007-08-06 07:19:27 51°12.18 2°48.574 -999 -999 -999 -999
2007-08-06 07:19:32 51°12.172 2°48.551 -999 -999 -999 -999
2007-08-06 07:19:37 51°12.165 2°48.528 -999 -999 -999 -999
2007-08-06 07:19:42 51°12.157 2°48.506 -999 -999 -999 -999
2007-08-06 07:19:47 51°12.15 2°48.483 -999 -999 -999 -999
2007-08-06 07:19:52 51°12.142 2°48.46 -999 -999 -999 -999
2007-08-06 07:19:57 51°12.134 2°48.437 -999 -999 -999 -999
2007-08-06 07:20:02 51°12.126 2°48.414 -999 -999 -999 -999
2007-08-06 07:20:07 51°12.119 2°48.391 -999 -999 -999 -999
2007-08-06 07:20:12 51°12.111 2°48.369 -999 -999 -999 -999
2007-08-06 07:20:17 51°12.103 2°48.346 -999 -999 -999 -999
2007-08-06 07:20:22 51°12.096 2°48.323 -999 -999 -999 -999
2007-08-06 07:20:27 51°12.088 2°48.3 -999 -999 -999 -999
2007-08-06 07:20:32 51°12.081 2°48.277 -999 -999 -999 -999
2007-08-06 07:20:37 51°12.073 2°48.254 -999 -999 -999 -999
2007-08-06 07:20:42 51°12.065 2°48.231 -999 -999 -999 -999
2007-08-06 07:20:47 51°12.057 2°48.208 -999 -999 -999 -999
2007-08-06 07:20:52 51°12.049 2°48.185 -999 -999 -999 -999
2007-08-06 07:20:57 51°12.042 2°48.162 -999 -999 -999 -999
2007-08-06 07:21:02 51°12.034 2°48.139 -999 -999 -999 -999
2007-08-06 07:21:07 51°12.026 2°48.116 -999 -999 -999 -999
2007-08-06 07:21:12 51°12.018 2°48.093 -999 -999 -999 -999
2007-08-06 07:21:17 51°12.011 2°48.07 -999 -999 -999 -999
2007-08-06 07:21:22 51°12.003 2°48.047 -999 -999 -999 -999
2007-08-06 07:21:27 51°11.996 2°48.024 -999 -999 -999 -999
2007-08-06 07:21:32 51°11.988 2°48 -999 -999 -999 -999
2007-08-06 07:21:36 51°11.982 2°47.982 -999 -999 -999 -999
2007-08-06 07:21:42 51°11.973 2°47.954 -999 -999 -999 -999
2007-08-06 07:21:47 51°11.965 2°47.931 -999 -999 -999 -999
2007-08-06 07:21:52 51°11.957 2°47.908 -999 -999 -999 -999
2007-08-06 07:21:57 51°11.949 2°47.885 -999 -999 -999 -999
2007-08-06 07:22:02 51°11.942 2°47.862 -999 -999 -999 -999
2007-08-06 07:22:07 51°11.934 2°47.839 -999 -999 -999 -999
2007-08-06 07:22:12 51°11.926 2°47.815 -999 -999 -999 -999
2007-08-06 07:22:17 51°11.919 2°47.792 -999 -999 -999 -999
2007-08-06 07:22:22 51°11.911 2°47.769 -999 -999 -999 -999
2007-08-06 07:22:27 51°11.904 2°47.746 -999 -999 -999 -999
2007-08-06 07:22:32 51°11.896 2°47.723 -999 -999 -999 -999
2007-08-06 07:22:37 51°11.888 2°47.7 -999 -999 -999 -999
2007-08-06 07:22:42 51°11.88 2°47.676 -999 -999 -999 -999
2007-08-06 07:22:47 51°11.873 2°47.653 -999 -999 -999 -999
2007-08-06 07:22:52 51°11.865 2°47.63 -999 -999 -999 -999
2007-08-06 07:22:57 51°11.858 2°47.607 -999 -999 -999 -999
2007-08-06 07:23:02 51°11.85 2°47.584 -999 -999 -999 -999
2007-08-06 07:23:07 51°11.843 2°47.56 -999 -999 -999 -999
2007-08-06 07:23:12 51°11.835 2°47.537 -999 -999 -999 -999
2007-08-06 07:23:17 51°11.828 2°47.514 -999 -999 -999 -999
2007-08-06 07:23:22 51°11.82 2°47.491 -999 -999 -999 -999
2007-08-06 07:23:27 51°11.813 2°47.467 -999 -999 -999 -999
2007-08-06 07:23:32 51°11.805 2°47.444 -999 -999 -999 -999
2007-08-06 07:23:36 51°11.799 2°47.426 -999 -999 -999 -999
2007-08-06 07:23:42 51°11.79 2°47.398 -999 -999 -999 -999
2007-08-06 07:23:47 51°11.782 2°47.375 -999 -999 -999 -999
2007-08-06 07:23:52 51°11.775 2°47.351 -999 -999 -999 -999
2007-08-06 07:23:57 51°11.768 2°47.328 -999 -999 -999 -999
2007-08-06 07:24:02 51°11.761 2°47.304 -999 -999 -999 -999
2007-08-06 07:24:07 51°11.754 2°47.28 -999 -999 -999 -999
2007-08-06 07:24:12 51°11.748 2°47.256 -999 -999 -999 -999
2007-08-06 07:24:17 51°11.741 2°47.232 -999 -999 -999 -999
2007-08-06 07:24:22 51°11.734 2°47.208 -999 -999 -999 -999
2007-08-06 07:24:27 51°11.727 2°47.184 -999 -999 -999 -999
2007-08-06 07:24:32 51°11.721 2°47.16 -999 -999 -999 -999
2007-08-06 07:24:37 51°11.714 2°47.136 -999 -999 -999 -999
2007-08-06 07:24:42 51°11.707 2°47.112 -999 -999 -999 -999
2007-08-06 07:24:47 51°11.7 2°47.088 -999 -999 -999 -999
2007-08-06 07:24:52 51°11.694 2°47.064 -999 -999 -999 -999
2007-08-06 07:24:57 51°11.687 2°47.041 -999 -999 -999 -999
2007-08-06 07:25:02 51°11.68 2°47.017 -999 -999 -999 -999
2007-08-06 07:25:07 51°11.673 2°46.993 -999 -999 -999 -999
2007-08-06 07:25:12 51°11.667 2°46.968 -999 -999 -999 -999
2007-08-06 07:25:17 51°11.66 2°46.944 -999 -999 -999 -999
2007-08-06 07:25:22 51°11.654 2°46.92 -999 -999 -999 -999
2007-08-06 07:25:27 51°11.647 2°46.897 -999 -999 -999 -999
2007-08-06 07:25:32 51°11.64 2°46.873 -999 -999 -999 -999
2007-08-06 07:25:37 51°11.633 2°46.849 -999 -999 -999 -999
2007-08-06 07:25:42 51°11.626 2°46.825 -999 -999 -999 -999
2007-08-06 07:25:47 51°11.619 2°46.801 -999 -999 -999 -999
2007-08-06 07:25:52 51°11.612 2°46.777 -999 -999 -999 -999
2007-08-06 07:25:57 51°11.605 2°46.753 -999 -999 -999 -999
2007-08-06 07:26:02 51°11.598 2°46.729 -999 -999 -999 -999
2007-08-06 07:26:07 51°11.592 2°46.705 -999 -999 -999 -999
2007-08-06 07:26:12 51°11.585 2°46.681 -999 -999 -999 -999
2007-08-06 07:26:17 51°11.578 2°46.657 -999 -999 -999 -999
2007-08-06 07:26:22 51°11.572 2°46.633 -999 -999 -999 -999
2007-08-06 07:26:27 51°11.565 2°46.608 -999 -999 -999 -999
2007-08-06 07:26:32 51°11.559 2°46.584 -999 -999 -999 -999
2007-08-06 07:26:37 51°11.553 2°46.56 -999 -999 -999 -999
2007-08-06 07:26:42 51°11.546 2°46.535 -999 -999 -999 -999
2007-08-06 07:26:47 51°11.539 2°46.511 -999 -999 -999 -999
2007-08-06 07:26:52 51°11.532 2°46.488 -999 -999 -999 -999
2007-08-06 07:26:57 51°11.525 2°46.464 -999 -999 -999 -999
2007-08-06 07:27:02 51°11.518 2°46.44 -999 -999 -999 -999
2007-08-06 07:27:07 51°11.512 2°46.416 -999 -999 -999 -999
2007-08-06 07:27:12 51°11.505 2°46.391 -999 -999 -999 -999
2007-08-06 07:27:17 51°11.498 2°46.367 -999 -999 -999 -999
2007-08-06 07:27:22 51°11.492 2°46.343 -999 -999 -999 -999
2007-08-06 07:27:27 51°11.486 2°46.318 -999 -999 -999 -999
2007-08-06 07:27:32 51°11.479 2°46.294 -999 -999 -999 -999
2007-08-06 07:27:37 51°11.473 2°46.269 -999 -999 -999 -999
2007-08-06 07:27:42 51°11.466 2°46.245 -999 -999 -999 -999
2007-08-06 07:27:47 51°11.46 2°46.221 -999 -999 -999 -999
2007-08-06 07:27:52 51°11.453 2°46.197 -999 -999 -999 -999
2007-08-06 07:27:57 51°11.446 2°46.173 -999 -999 -999 -999
2007-08-06 07:28:02 51°11.439 2°46.149 -999 -999 -999 -999
2007-08-06 07:28:07 51°11.433 2°46.125 -999 -999 -999 -999
2007-08-06 07:28:12 51°11.426 2°46.1 -999 -999 -999 -999
2007-08-06 07:28:16 51°11.421 2°46.081 -999 -999 -999 -999
2007-08-06 07:28:22 51°11.412 2°46.052 -999 -999 -999 -999
2007-08-06 07:28:27 51°11.406 2°46.028 -999 -999 -999 -999
2007-08-06 07:28:32 51°11.399 2°46.004 -999 -999 -999 -999
2007-08-06 07:28:37 51°11.393 2°45.98 -999 -999 -999 -999
2007-08-06 07:28:42 51°11.386 2°45.955 -999 -999 -999 -999
2007-08-06 07:28:47 51°11.38 2°45.931 -999 -999 -999 -999
2007-08-06 07:28:52 51°11.373 2°45.906 -999 -999 -999 -999
2007-08-06 07:28:57 51°11.367 2°45.882 -999 -999 -999 -999
2007-08-06 07:29:02 51°11.36 2°45.858 -999 -999 -999 -999
2007-08-06 07:29:07 51°11.353 2°45.834 -999 -999 -999 -999
2007-08-06 07:29:12 51°11.347 2°45.81 -999 -999 -999 -999
2007-08-06 07:29:17 51°11.34 2°45.786 -999 -999 -999 -999
2007-08-06 07:29:22 51°11.333 2°45.761 -999 -999 -999 -999
2007-08-06 07:29:27 51°11.327 2°45.737 -999 -999 -999 -999
2007-08-06 07:29:32 51°11.32 2°45.713 -999 -999 -999 -999
2007-08-06 07:29:37 51°11.314 2°45.688 -999 -999 -999 -999
2007-08-06 07:29:42 51°11.308 2°45.663 -999 -999 -999 -999
2007-08-06 07:29:47 51°11.303 2°45.639 -999 -999 -999 -999
2007-08-06 07:29:52 51°11.297 2°45.614 -999 -999 -999 -999
2007-08-06 07:29:57 51°11.291 2°45.589 -999 -999 -999 -999
2007-08-06 07:30:02 51°11.286 2°45.564 -999 -999 -999 -999
2007-08-06 07:30:07 51°11.28 2°45.539 -999 -999 -999 -999
2007-08-06 07:30:12 51°11.275 2°45.514 -999 -999 -999 -999
2007-08-06 07:30:17 51°11.269 2°45.489 -999 -999 -999 -999
2007-08-06 07:30:22 51°11.264 2°45.464 -999 -999 -999 -999
2007-08-06 07:30:27 51°11.258 2°45.44 -999 -999 -999 -999
2007-08-06 07:30:32 51°11.252 2°45.415 -999 -999 -999 -999
2007-08-06 07:30:36 51°11.247 2°45.395 -999 -999 -999 -999
2007-08-06 07:30:42 51°11.24 2°45.366 -999 -999 -999 -999
2007-08-06 07:30:47 51°11.235 2°45.341 -999 -999 -999 -999
2007-08-06 07:30:52 51°11.229 2°45.316 -999 -999 -999 -999
2007-08-06 07:30:57 51°11.223 2°45.291 -999 -999 -999 -999
2007-08-06 07:31:02 51°11.217 2°45.267 -999 -999 -999 -999
2007-08-06 07:31:07 51°11.212 2°45.242 -999 -999 -999 -999
2007-08-06 07:31:12 51°11.206 2°45.217 -999 -999 -999 -999
2007-08-06 07:31:17 51°11.201 2°45.192 -999 -999 -999 -999
2007-08-06 07:31:22 51°11.195 2°45.167 -999 -999 -999 -999
2007-08-06 07:31:27 51°11.189 2°45.143 -999 -999 -999 -999
2007-08-06 07:31:32 51°11.183 2°45.118 -999 -999 -999 -999
2007-08-06 07:31:37 51°11.177 2°45.093 -999 -999 -999 -999
2007-08-06 07:31:42 51°11.171 2°45.069 -999 -999 -999 -999
2007-08-06 07:31:47 51°11.166 2°45.044 -999 -999 -999 -999
2007-08-06 07:31:52 51°11.16 2°45.019 -999 -999 -999 -999
2007-08-06 07:31:57 51°11.154 2°44.994 -999 -999 -999 -999
2007-08-06 07:32:02 51°11.149 2°44.969 -999 -999 -999 -999
2007-08-06 07:32:07 51°11.143 2°44.944 -999 -999 -999 -999
2007-08-06 07:32:12 51°11.138 2°44.919 -999 -999 -999 -999
2007-08-06 07:32:17 51°11.132 2°44.894 -999 -999 -999 -999
2007-08-06 07:32:22 51°11.126 2°44.869 -999 -999 -999 -999
2007-08-06 07:32:27 51°11.121 2°44.844 -999 -999 -999 -999
2007-08-06 07:32:32 51°11.115 2°44.819 -999 -999 -999 -999
2007-08-06 07:32:37 51°11.109 2°44.794 -999 -999 -999 -999
2007-08-06 07:32:42 51°11.104 2°44.769 -999 -999 -999 -999
2007-08-06 07:32:47 51°11.098 2°44.744 -999 -999 -999 -999
2007-08-06 07:32:52 51°11.092 2°44.719 -999 -999 -999 -999
2007-08-06 07:32:56 51°11.088 2°44.699 -999 -999 -999 -999
2007-08-06 07:33:02 51°11.081 2°44.669 -999 -999 -999 -999
2007-08-06 07:33:07 51°11.076 2°44.643 -999 -999 -999 -999
2007-08-06 07:33:12 51°11.07 2°44.618 -999 -999 -999 -999
2007-08-06 07:33:17 51°11.064 2°44.593 -999 -999 -999 -999
2007-08-06 07:33:22 51°11.059 2°44.568 -999 -999 -999 -999
2007-08-06 07:33:27 51°11.053 2°44.543 -999 -999 -999 -999
2007-08-06 07:33:32 51°11.047 2°44.518 -999 -999 -999 -999
2007-08-06 07:33:37 51°11.041 2°44.494 -999 -999 -999 -999
2007-08-06 07:33:42 51°11.035 2°44.469 -999 -999 -999 -999
2007-08-06 07:33:47 51°11.029 2°44.444 -999 -999 -999 -999
2007-08-06 07:33:52 51°11.023 2°44.419 -999 -999 -999 -999
2007-08-06 07:33:57 51°11.017 2°44.394 -999 -999 -999 -999
2007-08-06 07:34:02 51°11.011 2°44.37 -999 -999 -999 -999
2007-08-06 07:34:07 51°11.006 2°44.344 -999 -999 -999 -999
2007-08-06 07:34:12 51°11 2°44.319 -999 -999 -999 -999
2007-08-06 07:34:17 51°10.995 2°44.294 -999 -999 -999 -999
2007-08-06 07:34:22 51°10.989 2°44.269 -999 -999 -999 -999
2007-08-06 07:34:27 51°10.983 2°44.244 -999 -999 -999 -999
2007-08-06 07:34:32 51°10.978 2°44.219 -999 -999 -999 -999
2007-08-06 07:34:37 51°10.972 2°44.194 -999 -999 -999 -999
2007-08-06 07:34:42 51°10.967 2°44.169 -999 -999 -999 -999
2007-08-06 07:34:47 51°10.961 2°44.144 -999 -999 -999 -999
2007-08-06 07:34:52 51°10.955 2°44.119 -999 -999 -999 -999
2007-08-06 07:34:57 51°10.949 2°44.094 -999 -999 -999 -999
2007-08-06 07:35:02 51°10.943 2°44.069 -999 -999 -999 -999
2007-08-06 07:35:07 51°10.938 2°44.044 -999 -999 -999 -999
2007-08-06 07:35:12 51°10.932 2°44.019 -999 -999 -999 -999
2007-08-06 07:35:16 51°10.927 2°44 -999 -999 -999 -999
2007-08-06 07:35:22 51°10.92 2°43.97 -999 -999 -999 -999
2007-08-06 07:35:27 51°10.914 2°43.945 -999 -999 -999 -999
2007-08-06 07:35:32 51°10.908 2°43.92 -999 -999 -999 -999
2007-08-06 07:35:37 51°10.902 2°43.895 -999 -999 -999 -999
2007-08-06 07:35:42 51°10.897 2°43.87 -999 -999 -999 -999
2007-08-06 07:35:47 51°10.892 2°43.845 -999 -999 -999 -999
2007-08-06 07:35:52 51°10.886 2°43.819 -999 -999 -999 -999
2007-08-06 07:35:57 51°10.881 2°43.794 -999 -999 -999 -999
2007-08-06 07:36:02 51°10.875 2°43.769 -999 -999 -999 -999
2007-08-06 07:36:07 51°10.87 2°43.744 -999 -999 -999 -999
2007-08-06 07:36:12 51°10.864 2°43.719 -999 -999 -999 -999
2007-08-06 07:36:17 51°10.858 2°43.694 -999 -999 -999 -999
2007-08-06 07:36:22 51°10.853 2°43.669 -999 -999 -999 -999
2007-08-06 07:36:27 51°10.846 2°43.644 -999 -999 -999 -999
2007-08-06 07:36:32 51°10.841 2°43.62 -999 -999 -999 -999
2007-08-06 07:36:37 51°10.835 2°43.595 -999 -999 -999 -999
2007-08-06 07:36:42 51°10.829 2°43.57 -999 -999 -999 -999
2007-08-06 07:36:47 51°10.824 2°43.545 -999 -999 -999 -999
2007-08-06 07:36:52 51°10.818 2°43.519 -999 -999 -999 -999
2007-08-06 07:36:57 51°10.812 2°43.494 -999 -999 -999 -999
2007-08-06 07:37:02 51°10.807 2°43.469 -999 -999 -999 -999
2007-08-06 07:37:07 51°10.801 2°43.444 -999 -999 -999 -999
2007-08-06 07:37:12 51°10.796 2°43.419 -999 -999 -999 -999
2007-08-06 07:37:17 51°10.79 2°43.394 -999 -999 -999 -999
2007-08-06 07:37:22 51°10.785 2°43.368 -999 -999 -999 -999
2007-08-06 07:37:27 51°10.779 2°43.343 -999 -999 -999 -999
2007-08-06 07:37:32 51°10.773 2°43.318 -999 -999 -999 -999
2007-08-06 07:37:36 51°10.768 2°43.298 -999 -999 -999 -999
2007-08-06 07:37:42 51°10.762 2°43.268 -999 -999 -999 -999
2007-08-06 07:37:47 51°10.756 2°43.243 -999 -999 -999 -999
2007-08-06 07:37:52 51°10.75 2°43.218 -999 -999 -999 -999
2007-08-06 07:37:57 51°10.745 2°43.193 -999 -999 -999 -999
2007-08-06 07:38:02 51°10.739 2°43.168 -999 -999 -999 -999
2007-08-06 07:38:07 51°10.733 2°43.143 -999 -999 -999 -999
2007-08-06 07:38:12 51°10.727 2°43.118 -999 -999 -999 -999
2007-08-06 07:38:17 51°10.721 2°43.093 -999 -999 -999 -999
2007-08-06 07:38:22 51°10.715 2°43.067 -999 -999 -999 -999
2007-08-06 07:38:27 51°10.71 2°43.042 -999 -999 -999 -999
2007-08-06 07:38:32 51°10.705 2°43.017 -999 -999 -999 -999
2007-08-06 07:38:37 51°10.7 2°42.992 -999 -999 -999 -999
2007-08-06 07:38:42 51°10.695 2°42.966 -999 -999 -999 -999
2007-08-06 07:38:47 51°10.69 2°42.941 -999 -999 -999 -999
2007-08-06 07:38:52 51°10.686 2°42.915 -999 -999 -999 -999
2007-08-06 07:38:57 51°10.682 2°42.889 -999 -999 -999 -999
2007-08-06 07:39:02 51°10.677 2°42.864 -999 -999 -999 -999
2007-08-06 07:39:07 51°10.673 2°42.838 -999 -999 -999 -999
2007-08-06 07:39:12 51°10.669 2°42.813 -999 -999 -999 -999
2007-08-06 07:39:17 51°10.664 2°42.787 -999 -999 -999 -999
2007-08-06 07:39:22 51°10.659 2°42.762 -999 -999 -999 -999
2007-08-06 07:39:27 51°10.655 2°42.736 -999 -999 -999 -999
2007-08-06 07:39:32 51°10.65 2°42.711 -999 -999 -999 -999
2007-08-06 07:39:37 51°10.645 2°42.686 -999 -999 -999 -999
2007-08-06 07:39:42 51°10.641 2°42.66 -999 -999 -999 -999
2007-08-06 07:39:47 51°10.636 2°42.635 -999 -999 -999 -999
2007-08-06 07:39:52 51°10.631 2°42.61 -999 -999 -999 -999
2007-08-06 07:39:57 51°10.627 2°42.585 -999 -999 -999 -999
2007-08-06 07:40:02 51°10.622 2°42.559 -999 -999 -999 -999
2007-08-06 07:40:07 51°10.618 2°42.534 -999 -999 -999 -999
2007-08-06 07:40:12 51°10.613 2°42.508 -999 -999 -999 -999
2007-08-06 07:40:17 51°10.609 2°42.483 -999 -999 -999 -999
2007-08-06 07:40:22 51°10.605 2°42.457 -999 -999 -999 -999
2007-08-06 07:40:27 51°10.601 2°42.432 -999 -999 -999 -999
2007-08-06 07:40:32 51°10.596 2°42.407 -999 -999 -999 -999
2007-08-06 07:40:37 51°10.591 2°42.381 -999 -999 -999 -999
2007-08-06 07:40:42 51°10.587 2°42.356 -999 -999 -999 -999
2007-08-06 07:40:47 51°10.582 2°42.33 -999 -999 -999 -999
2007-08-06 07:40:52 51°10.578 2°42.305 -999 -999 -999 -999
2007-08-06 07:40:57 51°10.574 2°42.279 -999 -999 -999 -999
2007-08-06 07:41:02 51°10.569 2°42.254 -999 -999 -999 -999
2007-08-06 07:41:07 51°10.565 2°42.228 -999 -999 -999 -999
2007-08-06 07:41:12 51°10.561 2°42.203 -999 -999 -999 -999
2007-08-06 07:41:17 51°10.556 2°42.177 -999 -999 -999 -999
2007-08-06 07:41:22 51°10.552 2°42.151 -999 -999 -999 -999
2007-08-06 07:41:27 51°10.547 2°42.126 -999 -999 -999 -999
2007-08-06 07:41:32 51°10.543 2°42.1 -999 -999 -999 -999
2007-08-06 07:41:37 51°10.538 2°42.075 -999 -999 -999 -999
2007-08-06 07:41:42 51°10.533 2°42.05 -999 -999 -999 -999
2007-08-06 07:41:47 51°10.529 2°42.024 -999 -999 -999 -999
2007-08-06 07:41:52 51°10.524 2°41.999 -999 -999 -999 -999
2007-08-06 07:41:57 51°10.52 2°41.973 -999 -999 -999 -999
2007-08-06 07:42:02 51°10.516 2°41.947 -999 -999 -999 -999
2007-08-06 07:42:07 51°10.512 2°41.922 -999 -999 -999 -999
2007-08-06 07:42:12 51°10.507 2°41.896 -999 -999 -999 -999
2007-08-06 07:42:17 51°10.503 2°41.871 -999 -999 -999 -999
2007-08-06 07:42:22 51°10.499 2°41.845 -999 -999 -999 -999
2007-08-06 07:42:27 51°10.494 2°41.819 -999 -999 -999 -999
2007-08-06 07:42:32 51°10.49 2°41.794 -999 -999 -999 -999
2007-08-06 07:42:37 51°10.485 2°41.768 -999 -999 -999 -999
2007-08-06 07:42:42 51°10.481 2°41.743 -999 -999 -999 -999
2007-08-06 07:42:47 51°10.476 2°41.717 -999 -999 -999 -999
2007-08-06 07:42:52 51°10.472 2°41.692 -999 -999 -999 -999
2007-08-06 07:42:57 51°10.467 2°41.667 -999 -999 -999 -999
2007-08-06 07:43:02 51°10.462 2°41.641 -999 -999 -999 -999
2007-08-06 07:43:07 51°10.458 2°41.616 -999 -999 -999 -999
2007-08-06 07:43:12 51°10.453 2°41.59 -999 -999 -999 -999
2007-08-06 07:43:17 51°10.448 2°41.565 -999 -999 -999 -999
2007-08-06 07:43:22 51°10.444 2°41.539 -999 -999 -999 -999
2007-08-06 07:43:27 51°10.44 2°41.513 -999 -999 -999 -999
2007-08-06 07:43:32 51°10.435 2°41.488 -999 -999 -999 -999
2007-08-06 07:43:37 51°10.431 2°41.462 -999 -999 -999 -999
2007-08-06 07:43:42 51°10.427 2°41.437 -999 -999 -999 -999
2007-08-06 07:43:47 51°10.422 2°41.411 -999 -999 -999 -999
2007-08-06 07:43:52 51°10.418 2°41.386 -999 -999 -999 -999
2007-08-06 07:43:57 51°10.413 2°41.36 -999 -999 -999 -999
2007-08-06 07:44:02 51°10.409 2°41.335 -999 -999 -999 -999
2007-08-06 07:44:07 51°10.404 2°41.309 -999 -999 -999 -999
2007-08-06 07:44:12 51°10.399 2°41.284 -999 -999 -999 -999
2007-08-06 07:44:17 51°10.395 2°41.259 -999 -999 -999 -999
2007-08-06 07:44:22 51°10.39 2°41.233 -999 -999 -999 -999
2007-08-06 07:44:27 51°10.386 2°41.208 -999 -999 -999 -999
2007-08-06 07:44:32 51°10.381 2°41.182 -999 -999 -999 -999
2007-08-06 07:44:37 51°10.377 2°41.157 -999 -999 -999 -999
2007-08-06 07:44:42 51°10.372 2°41.132 -999 -999 -999 -999
2007-08-06 07:44:47 51°10.368 2°41.106 -999 -999 -999 -999
2007-08-06 07:44:52 51°10.363 2°41.08 -999 -999 -999 -999
2007-08-06 07:44:57 51°10.359 2°41.055 -999 -999 -999 -999
2007-08-06 07:45:02 51°10.355 2°41.029 -999 -999 -999 -999
2007-08-06 07:45:07 51°10.35 2°41.003 -999 -999 -999 -999
2007-08-06 07:45:12 51°10.346 2°40.978 -999 -999 -999 -999
2007-08-06 07:45:17 51°10.342 2°40.952 -999 -999 -999 -999
2007-08-06 07:45:22 51°10.337 2°40.926 -999 -999 -999 -999
2007-08-06 07:45:27 51°10.333 2°40.901 -999 -999 -999 -999
2007-08-06 07:45:32 51°10.328 2°40.875 -999 -999 -999 -999
2007-08-06 07:45:37 51°10.324 2°40.849 -999 -999 -999 -999
2007-08-06 07:45:42 51°10.319 2°40.824 -999 -999 -999 -999
2007-08-06 07:45:47 51°10.315 2°40.798 -999 -999 -999 -999
2007-08-06 07:45:52 51°10.31 2°40.772 -999 -999 -999 -999
2007-08-06 07:45:57 51°10.305 2°40.746 -999 -999 -999 -999
2007-08-06 07:46:02 51°10.301 2°40.721 -999 -999 -999 -999
2007-08-06 07:46:07 51°10.296 2°40.695 -999 -999 -999 -999
2007-08-06 07:46:12 51°10.292 2°40.668 -999 -999 -999 -999
2007-08-06 07:46:17 51°10.288 2°40.643 -999 -999 -999 -999
2007-08-06 07:46:22 51°10.283 2°40.617 -999 -999 -999 -999
2007-08-06 07:46:27 51°10.279 2°40.591 -999 -999 -999 -999
2007-08-06 07:46:32 51°10.274 2°40.565 -999 -999 -999 -999
2007-08-06 07:46:37 51°10.269 2°40.539 -999 -999 -999 -999
2007-08-06 07:46:42 51°10.265 2°40.512 -999 -999 -999 -999
2007-08-06 07:46:47 51°10.26 2°40.487 -999 -999 -999 -999
2007-08-06 07:46:52 51°10.255 2°40.461 -999 -999 -999 -999
2007-08-06 07:46:57 51°10.25 2°40.435 -999 -999 -999 -999
2007-08-06 07:47:02 51°10.246 2°40.409 -999 -999 -999 -999
2007-08-06 07:47:07 51°10.241 2°40.383 -999 -999 -999 -999
2007-08-06 07:47:12 51°10.236 2°40.357 -999 -999 -999 -999
2007-08-06 07:47:17 51°10.232 2°40.331 -999 -999 -999 -999
2007-08-06 07:47:22 51°10.227 2°40.305 -999 -999 -999 -999
2007-08-06 07:47:27 51°10.223 2°40.279 -999 -999 -999 -999
2007-08-06 07:47:32 51°10.218 2°40.252 -999 -999 -999 -999
2007-08-06 07:47:37 51°10.213 2°40.226 -999 -999 -999 -999
2007-08-06 07:47:42 51°10.209 2°40.2 -999 -999 -999 -999
2007-08-06 07:47:47 51°10.204 2°40.174 -999 -999 -999 -999
2007-08-06 07:47:51 51°10.2 2°40.153 -999 -999 -999 -999
2007-08-06 07:47:57 51°10.194 2°40.122 -999 -999 -999 -999
2007-08-06 07:48:02 51°10.19 2°40.096 -999 -999 -999 -999
2007-08-06 07:48:07 51°10.185 2°40.07 -999 -999 -999 -999
2007-08-06 07:48:12 51°10.18 2°40.044 -999 -999 -999 -999
2007-08-06 07:48:17 51°10.175 2°40.018 -999 -999 -999 -999
2007-08-06 07:48:22 51°10.171 2°39.992 -999 -999 -999 -999
2007-08-06 07:48:27 51°10.166 2°39.966 -999 -999 -999 -999
2007-08-06 07:48:32 51°10.161 2°39.94 -999 -999 -999 -999
2007-08-06 07:48:37 51°10.157 2°39.914 -999 -999 -999 -999
2007-08-06 07:48:42 51°10.152 2°39.888 -999 -999 -999 -999
2007-08-06 07:48:47 51°10.148 2°39.861 -999 -999 -999 -999
2007-08-06 07:48:52 51°10.143 2°39.835 -999 -999 -999 -999
2007-08-06 07:48:57 51°10.138 2°39.809 -999 -999 -999 -999
2007-08-06 07:49:02 51°10.134 2°39.783 -999 -999 -999 -999
2007-08-06 07:49:07 51°10.129 2°39.756 -999 -999 -999 -999
2007-08-06 07:49:12 51°10.125 2°39.73 -999 -999 -999 -999
2007-08-06 07:49:17 51°10.12 2°39.704 -999 -999 -999 -999
2007-08-06 07:49:22 51°10.115 2°39.678 -999 -999 -999 -999
2007-08-06 07:49:27 51°10.11 2°39.652 -999 -999 -999 -999
2007-08-06 07:49:32 51°10.105 2°39.626 -999 -999 -999 -999
2007-08-06 07:49:37 51°10.101 2°39.6 -999 -999 -999 -999
2007-08-06 07:49:42 51°10.096 2°39.574 -999 -999 -999 -999
2007-08-06 07:49:47 51°10.091 2°39.548 -999 -999 -999 -999
2007-08-06 07:49:52 51°10.086 2°39.522 -999 -999 -999 -999
2007-08-06 07:49:57 51°10.081 2°39.496 -999 -999 -999 -999
2007-08-06 07:50:02 51°10.077 2°39.471 -999 -999 -999 -999
2007-08-06 07:50:07 51°10.074 2°39.448 -999 -999 -999 -999
2007-08-06 07:50:11 51°10.071 2°39.431 -999 -999 -999 -999
2007-08-06 07:50:17 51°10.068 2°39.407 -999 -999 -999 -999
2007-08-06 07:50:22 51°10.065 2°39.389 -999 -999 -999 -999
2007-08-06 07:50:27 51°10.063 2°39.371 -999 -999 -999 -999
2007-08-06 07:50:32 51°10.061 2°39.355 -999 -999 -999 -999
2007-08-06 07:50:36 51°10.06 2°39.343 -999 -999 -999 -999
2007-08-06 07:50:42 51°10.059 2°39.325 -999 -999 -999 -999
2007-08-06 07:50:47 51°10.058 2°39.312 -999 -999 -999 -999
2007-08-06 07:50:52 51°10.057 2°39.299 -999 -999 -999 -999
2007-08-06 07:50:57 51°10.057 2°39.287 -999 -999 -999 -999
2007-08-06 07:51:02 51°10.057 2°39.276 -999 -999 -999 -999
2007-08-06 07:51:07 51°10.057 2°39.265 -999 -999 -999 -999
2007-08-06 07:51:12 51°10.058 2°39.255 -999 -999 -999 -999
2007-08-06 07:51:17 51°10.059 2°39.246 -999 -999 -999 -999
2007-08-06 07:51:22 51°10.06 2°39.237 -999 -999 -999 -999
2007-08-06 07:51:27 51°10.061 2°39.228 -999 -999 -999 -999
2007-08-06 07:51:32 51°10.063 2°39.22 -999 -999 -999 -999
2007-08-06 07:51:37 51°10.064 2°39.212 -999 -999 -999 -999
2007-08-06 07:51:42 51°10.066 2°39.204 -999 -999 -999 -999
2007-08-06 07:51:47 51°10.068 2°39.196 -999 -999 -999 -999
2007-08-06 07:51:52 51°10.07 2°39.188 -999 -999 -999 -999
2007-08-06 07:51:57 51°10.072 2°39.179 -999 -999 -999 -999
2007-08-06 07:52:02 51°10.075 2°39.17 -999 -999 -999 -999
2007-08-06 07:52:07 51°10.077 2°39.16 -999 -999 -999 -999
2007-08-06 07:52:12 51°10.08 2°39.15 -999 -999 -999 -999
2007-08-06 07:52:17 51°10.082 2°39.14 -999 -999 -999 -999
2007-08-06 07:52:22 51°10.085 2°39.13 -999 -999 -999 -999
2007-08-06 07:52:27 51°10.087 2°39.12 -999 -999 -999 -999
2007-08-06 07:52:31 51°10.09 2°39.111 -999 -999 -999 -999
2007-08-06 07:52:37 51°10.093 2°39.098 -999 -999 -999 -999
2007-08-06 07:52:42 51°10.096 2°39.087 -999 -999 -999 -999
2007-08-06 07:52:47 51°10.099 2°39.076 -999 -999 -999 -999
2007-08-06 07:52:52 51°10.102 2°39.065 -999 -999 -999 -999
2007-08-06 07:52:57 51°10.105 2°39.053 -999 -999 -999 -999
2007-08-06 07:53:02 51°10.108 2°39.041 -999 -999 -999 -999
2007-08-06 07:53:07 51°10.112 2°39.027 -999 -999 -999 -999
2007-08-06 07:53:12 51°10.115 2°39.013 -999 -999 -999 -999
2007-08-06 07:53:17 51°10.119 2°38.997 -999 -999 -999 -999
2007-08-06 07:53:22 51°10.122 2°38.98 -999 -999 -999 -999
2007-08-06 07:53:27 51°10.126 2°38.963 -999 -999 -999 -999
2007-08-06 07:53:32 51°10.129 2°38.945 -999 -999 -999 -999
2007-08-06 07:53:37 51°10.132 2°38.926 -999 -999 -999 -999
2007-08-06 07:53:42 51°10.136 2°38.907 -999 -999 -999 -999
2007-08-06 07:53:47 51°10.139 2°38.888 -999 -999 -999 -999
2007-08-06 07:53:52 51°10.142 2°38.869 -999 -999 -999 -999
2007-08-06 07:53:57 51°10.145 2°38.849 -999 -999 -999 -999
2007-08-06 07:54:02 51°10.148 2°38.829 -999 -999 -999 -999
2007-08-06 07:54:07 51°10.152 2°38.809 -999 -999 -999 -999
2007-08-06 07:54:12 51°10.155 2°38.789 -999 -999 -999 -999
2007-08-06 07:54:17 51°10.159 2°38.769 -999 -999 -999 -999
2007-08-06 07:54:22 51°10.164 2°38.749 -999 -999 -999 -999
2007-08-06 07:54:27 51°10.168 2°38.729 -999 -999 -999 -999
2007-08-06 07:54:32 51°10.173 2°38.709 -999 -999 -999 -999
2007-08-06 07:54:37 51°10.178 2°38.69 -999 -999 -999 -999
2007-08-06 07:54:42 51°10.183 2°38.67 -999 -999 -999 -999
2007-08-06 07:54:47 51°10.188 2°38.65 -999 -999 -999 -999
2007-08-06 07:54:52 51°10.193 2°38.63 -999 -999 -999 -999
2007-08-06 07:54:57 51°10.198 2°38.611 -999 -999 -999 -999
2007-08-06 07:55:02 51°10.203 2°38.591 -999 -999 -999 -999
2007-08-06 07:55:07 51°10.209 2°38.572 -999 -999 -999 -999
2007-08-06 07:55:12 51°10.215 2°38.553 -999 -999 -999 -999
2007-08-06 07:55:17 51°10.222 2°38.533 -999 -999 -999 -999
2007-08-06 07:55:22 51°10.227 2°38.514 -999 -999 -999 -999
2007-08-06 07:55:27 51°10.233 2°38.495 -999 -999 -999 -999
2007-08-06 07:55:32 51°10.238 2°38.475 -999 -999 -999 -999
2007-08-06 07:55:37 51°10.243 2°38.455 -999 -999 -999 -999
2007-08-06 07:55:42 51°10.248 2°38.435 -999 -999 -999 -999
2007-08-06 07:55:47 51°10.251 2°38.415 -999 -999 -999 -999
2007-08-06 07:55:52 51°10.255 2°38.394 -999 -999 -999 -999
2007-08-06 07:55:57 51°10.257 2°38.374 -999 -999 -999 -999
2007-08-06 07:56:02 51°10.259 2°38.353 -999 -999 -999 -999
2007-08-06 07:56:07 51°10.261 2°38.333 -999 -999 -999 -999
2007-08-06 07:56:12 51°10.262 2°38.312 -999 -999 -999 -999
2007-08-06 07:56:17 51°10.263 2°38.291 -999 -999 -999 -999
2007-08-06 07:56:22 51°10.264 2°38.27 -999 -999 -999 -999
2007-08-06 07:56:27 51°10.265 2°38.25 -999 -999 -999 -999
2007-08-06 07:56:32 51°10.266 2°38.229 -999 -999 -999 -999
2007-08-06 07:56:37 51°10.268 2°38.208 -999 -999 -999 -999
2007-08-06 07:56:42 51°10.269 2°38.187 -999 -999 -999 -999
2007-08-06 07:56:47 51°10.271 2°38.166 -999 -999 -999 -999
2007-08-06 07:56:52 51°10.273 2°38.148 -999 -999 -999 -999
2007-08-06 07:56:57 51°10.274 2°38.13 -999 -999 -999 -999
2007-08-06 07:57:02 51°10.275 2°38.114 -999 -999 -999 -999
2007-08-06 07:57:07 51°10.276 2°38.098 -999 -999 -999 -999
2007-08-06 07:57:12 51°10.277 2°38.084 -999 -999 -999 -999
2007-08-06 07:57:17 51°10.278 2°38.07 -999 -999 -999 -999
2007-08-06 07:57:22 51°10.278 2°38.057 -999 -999 -999 -999
2007-08-06 07:57:27 51°10.278 2°38.045 -999 -999 -999 -999
2007-08-06 07:57:32 51°10.279 2°38.033 -999 -999 -999 -999
2007-08-06 07:57:36 51°10.279 2°38.024 -999 -999 -999 -999
2007-08-06 07:57:42 51°10.279 2°38.012 -999 -999 -999 -999
2007-08-06 07:57:47 51°10.278 2°38.002 -999 -999 -999 -999
2007-08-06 07:57:52 51°10.278 2°37.992 -999 -999 -999 -999
2007-08-06 07:57:57 51°10.278 2°37.983 -999 -999 -999 -999
2007-08-06 07:58:02 51°10.278 2°37.975 -999 -999 -999 -999
2007-08-06 07:58:07 51°10.277 2°37.966 -999 -999 -999 -999
2007-08-06 07:58:12 51°10.277 2°37.959 -999 -999 -999 -999
2007-08-06 07:58:17 51°10.276 2°37.951 -999 -999 -999 -999
2007-08-06 07:58:22 51°10.275 2°37.944 -999 -999 -999 -999
2007-08-06 07:58:27 51°10.275 2°37.937 -999 -999 -999 -999
2007-08-06 07:58:32 51°10.274 2°37.93 -999 -999 -999 -999
2007-08-06 07:58:37 51°10.273 2°37.924 -999 -999 -999 -999
2007-08-06 07:58:42 51°10.272 2°37.918 -999 -999 -999 -999
2007-08-06 07:58:47 51°10.272 2°37.912 -999 -999 -999 -999
2007-08-06 07:58:52 51°10.271 2°37.906 -999 -999 -999 -999
2007-08-06 07:58:57 51°10.271 2°37.9 -999 -999 -999 -999
2007-08-06 07:59:02 51°10.271 2°37.894 -999 -999 -999 -999
2007-08-06 07:59:07 51°10.271 2°37.887 -999 -999 -999 -999
2007-08-06 07:59:12 51°10.271 2°37.881 -999 -999 -999 -999
2007-08-06 07:59:17 51°10.271 2°37.875 -999 -999 -999 -999
2007-08-06 07:59:22 51°10.272 2°37.868 -999 -999 -999 -999
2007-08-06 07:59:27 51°10.273 2°37.862 -999 -999 -999 -999
2007-08-06 07:59:32 51°10.274 2°37.855 -999 -999 -999 -999
2007-08-06 07:59:37 51°10.275 2°37.849 -999 -999 -999 -999
2007-08-06 07:59:42 51°10.277 2°37.842 -999 -999 -999 -999
2007-08-06 07:59:47 51°10.28 2°37.836 -999 -999 -999 -999
2007-08-06 07:59:52 51°10.282 2°37.831 -999 -999 -999 -999
2007-08-06 07:59:57 51°10.285 2°37.826 -999 -999 -999 -999
2007-08-06 08:00:02 51°10.289 2°37.821 -999 -999 -999 -999
2007-08-06 08:00:07 51°10.293 2°37.816 -999 -999 -999 -999
2007-08-06 08:00:12 51°10.297 2°37.812 -999 -999 -999 -999
2007-08-06 08:00:17 51°10.302 2°37.81 -999 -999 -999 -999
2007-08-06 08:00:22 51°10.306 2°37.808 -999 -999 -999 -999
2007-08-06 08:00:27 51°10.311 2°37.806 -999 -999 -999 -999
2007-08-06 08:00:32 51°10.317 2°37.806 -999 -999 -999 -999
2007-08-06 08:00:37 51°10.322 2°37.806 -999 -999 -999 -999
2007-08-06 08:00:42 51°10.327 2°37.808 -999 -999 -999 -999
2007-08-06 08:00:47 51°10.332 2°37.811 -999 -999 -999 -999
2007-08-06 08:00:52 51°10.338 2°37.814 -999 -999 -999 -999
2007-08-06 08:00:57 51°10.343 2°37.818 -999 -999 -999 -999
2007-08-06 08:01:02 51°10.348 2°37.823 -999 -999 -999 -999
2007-08-06 08:01:07 51°10.352 2°37.828 -999 -999 -999 -999
2007-08-06 08:01:12 51°10.356 2°37.834 -999 -999 -999 -999
2007-08-06 08:01:17 51°10.36 2°37.841 -999 -999 -999 -999
2007-08-06 08:01:22 51°10.364 2°37.849 -999 -999 -999 -999
2007-08-06 08:01:27 51°10.367 2°37.856 -999 -999 -999 -999
2007-08-06 08:01:32 51°10.37 2°37.865 -999 -999 -999 -999
2007-08-06 08:01:37 51°10.372 2°37.873 -999 -999 -999 -999
2007-08-06 08:01:42 51°10.374 2°37.882 -999 -999 -999 -999
2007-08-06 08:01:47 51°10.375 2°37.891 -999 -999 -999 -999
2007-08-06 08:01:52 51°10.376 2°37.9 -999 -999 -999 -999
2007-08-06 08:01:57 51°10.376 2°37.909 -999 -999 -999 -999
2007-08-06 08:02:02 51°10.376 2°37.918 -999 -999 -999 -999
2007-08-06 08:02:07 51°10.375 2°37.927 -999 -999 -999 -999
2007-08-06 08:02:12 51°10.374 2°37.935 -999 -999 -999 -999
2007-08-06 08:02:17 51°10.372 2°37.944 -999 -999 -999 -999
2007-08-06 08:02:22 51°10.37 2°37.951 -999 -999 -999 -999
2007-08-06 08:02:27 51°10.368 2°37.959 -999 -999 -999 -999
2007-08-06 08:02:32 51°10.365 2°37.966 -999 -999 -999 -999
2007-08-06 08:02:37 51°10.362 2°37.973 -999 -999 -999 -999
2007-08-06 08:02:42 51°10.359 2°37.98 -999 -999 -999 -999
2007-08-06 08:02:47 51°10.355 2°37.986 -999 -999 -999 -999
2007-08-06 08:02:52 51°10.351 2°37.992 -999 -999 -999 -999
2007-08-06 08:02:57 51°10.347 2°37.997 -999 -999 -999 -999
2007-08-06 08:03:02 51°10.342 2°38 -999 -999 -999 -999
2007-08-06 08:03:07 51°10.337 2°38.003 -999 -999 -999 -999
2007-08-06 08:03:12 51°10.332 2°38.004 -999 -999 -999 -999
2007-08-06 08:03:17 51°10.328 2°38.005 -999 -999 -999 -999
2007-08-06 08:03:22 51°10.323 2°38.004 -999 -999 -999 -999
2007-08-06 08:03:27 51°10.318 2°38.003 -999 -999 -999 -999
2007-08-06 08:03:32 51°10.314 2°38.001 -999 -999 -999 -999
2007-08-06 08:03:37 51°10.309 2°37.998 -999 -999 -999 -999
2007-08-06 08:03:42 51°10.305 2°37.993 -999 -999 -999 -999
2007-08-06 08:03:47 51°10.302 2°37.989 -999 -999 -999 -999
2007-08-06 08:03:52 51°10.299 2°37.983 -999 -999 -999 -999
2007-08-06 08:03:57 51°10.296 2°37.977 -999 -999 -999 -999
2007-08-06 08:04:02 51°10.294 2°37.97 -999 -999 -999 -999
2007-08-06 08:04:07 51°10.293 2°37.964 -999 -999 -999 -999
2007-08-06 08:04:12 51°10.292 2°37.956 -999 -999 -999 -999
2007-08-06 08:04:16 51°10.292 2°37.95 -999 -999 -999 -999
2007-08-06 08:04:22 51°10.292 2°37.941 -999 -999 -999 -999
2007-08-06 08:04:27 51°10.293 2°37.934 -999 -999 -999 -999
2007-08-06 08:04:32 51°10.294 2°37.926 -999 -999 -999 -999
2007-08-06 08:04:37 51°10.297 2°37.919 -999 -999 -999 -999
2007-08-06 08:04:42 51°10.3 2°37.912 -999 -999 -999 -999
2007-08-06 08:04:47 51°10.303 2°37.906 -999 -999 -999 -999
2007-08-06 08:04:52 51°10.308 2°37.901 -999 -999 -999 -999
2007-08-06 08:04:57 51°10.313 2°37.896 -999 -999 -999 -999
2007-08-06 08:05:02 51°10.318 2°37.893 -999 -999 -999 -999
2007-08-06 08:05:07 51°10.323 2°37.891 -999 -999 -999 -999
2007-08-06 08:05:12 51°10.329 2°37.889 -999 -999 -999 -999
2007-08-06 08:05:17 51°10.335 2°37.889 -999 -999 -999 -999
2007-08-06 08:05:22 51°10.342 2°37.89 -999 -999 -999 -999
2007-08-06 08:05:27 51°10.348 2°37.892 -999 -999 -999 -999
2007-08-06 08:05:32 51°10.354 2°37.896 -999 -999 -999 -999
2007-08-06 08:05:37 51°10.36 2°37.9 -999 -999 -999 -999
2007-08-06 08:05:42 51°10.366 2°37.906 -999 -999 -999 -999